Location: Trout Lake
(45.9980°N, 121.5270°W)
Time: 19:03:08
(UTC-07:00)

Daily predictions for brighter satellites

Satellite Brightness Start Highest point End
(mag) Time Altitude Azimuth Time Altitude Azimuth Time Altitude Azimuth
ALOS 3.5 21:03:51 10° S 21:08:19 44° W 21:12:49 10° NNW
SL-8 R/B 3.8 21:05:14 10° WSW 21:10:05 88° NNW 21:14:55 10° ENE
ERS-1 Rocket 3.0 21:05:46 10° SSE 21:10:48 81° ENE 21:15:52 10° NNW
Cosmos 407 Rocket 3.7 21:06:00 10° NNW 21:11:17 77° WSW 21:16:35 10° SSE
Gbstr 26 Del rocket 4.4 21:06:22 10° WNW 21:11:57 45° N 21:16:28 10° ENE
Meteor 1-27 Rocket 3.7 21:07:10 10° N 21:12:43 68° ENE 21:18:12 10° SSE
Okean 3 4.1 21:08:47 10° N 21:12:50 39° ENE 21:16:49 10° SE
SJ-11-01 4.4 21:08:27 10° SSE 21:13:12 86° ENE 21:17:59 10° NNW
Cosmos 1140 Rocket 3.9 21:09:08 10° N 21:14:06 46° ENE 21:19:03 10° SE
Cosmos 1782 3.1 21:10:43 10° NNW 21:14:46 75° W 21:18:47 10° S
H-2A R/B 4.3 21:12:19 10° SSW 21:15:44 35° W 21:19:12 10° NNW
USA 186 3.7 21:13:11 10° SSW 21:16:04 31° W 21:19:05 10° NNW
Cosmos 1674 Rocket 4.0 21:15:14 10° NNW 21:19:41 69° W 21:24:05 10° S
Cosmos 1452 Rocket 3.5 21:21:08 10° S 21:26:20 66° ESE 21:31:34 10° NNE
H-2A R/B 3.8 21:23:47 10° E 21:27:20 18° ENE 21:30:50 10° NNE
Okean 2 Rocket 3.8 21:24:06 10° SSE 21:28:05 35° E 21:32:06 10° NNE
Cosmos 1242 Rocket 3.3 21:25:29 10° N 21:28:55 36° ENE 21:32:16 11° SE
ISS -3.0 21:26:45 10° SW 21:29:52 44° SE 21:32:59 10° ENE
Cosmos 1184 Rocket 3.3 21:27:52 10° SSE 21:31:00 40° E 21:34:11 10° NNE
ATLAS 5 CENTAUR R/B 4.2 21:26:26 10° WNW 21:31:25 27° WSW 21:36:37 10° S
ARGOS 4.0 21:28:08 10° SE 21:32:56 35° ENE 21:37:45 10° N
YAOGAN 6 3.3 21:30:30 11° SE 21:33:38 36° ENE 21:36:54 10° N
Cosmos 1939 Rocket 3.0 21:30:11 10° S 21:34:04 76° WSW 21:38:02 10° NNW
Cosmos 1408 2.6 21:31:59 10° S 21:35:35 60° E 21:39:10 10° NNE
Cosmos 1782 Rocket 3.8 21:34:06 10° S 21:38:26 54° E 21:42:50 10° NNE
Terra 3.7 21:36:06 10° E 21:39:07 17° ENE 21:42:08 10° NNE
Sich 1 Rocket 4.0 21:35:24 10° SSW 21:39:57 70° W 21:44:33 10° N
Cosmos 1238 Rocket 2.4 21:39:01 10° N 21:42:17 89° E 21:46:06 10° S
SPOT 1/Viking Rocket 4.1 21:37:46 11° SE 21:42:29 46° ENE 21:47:28 10° N
Nadezhda 3 Rocket 4.2 21:39:53 10° N 21:46:16 79° W 21:52:37 10° S
Cosmos 1825 2.1 21:43:15 10° S 21:47:04 86° E 21:50:55 10° N
SPOT 5 3.1 21:44:18 10° SSE 21:49:36 88° ENE 21:55:01 10° NNW
Cosmos 1975 Rocket 3.0 21:46:31 10° N 21:50:52 84° E 21:55:12 10° S
Cosmos 2084 3.2 21:49:22 10° SW 21:53:12 82° NW 21:57:04 10° NE
COS B Rocket 3.6 21:50:13 10° N 21:54:17 66° W 21:57:54 10° SSW
Cosmos 1833 Rocket 3.2 21:49:26 10° NNW 21:54:53 48° ENE 21:59:10 16° SE
Cosmos 1850 Rocket 4.0 21:50:43 10° NNW 21:56:04 79° ENE 22:00:35 15° SSE
MetOp-A 4.2 21:54:29 10° SSE 21:59:51 89° WSW 22:05:14 10° NNW
DNEPR-1 R/B 4.0 21:54:23 10° NW 21:59:54 71° WSW 22:03:31 16° SSE
Cosmos 2278 Rocket 2.2 21:55:32 10° SSW 22:01:13 88° WNW 22:06:57 10° NNE
Cosmos 1378 Rocket 4.4 21:57:08 10° NNW 22:01:18 48° W 22:05:28 10° SSW
Cosmos 1844 Rocket 3.8 21:56:02 10° SW 22:01:28 47° WNW 22:06:55 10° NNE
Cosmos 1727 Rocket 4.4 21:56:48 10° N 22:02:43 45° ENE 22:07:08 17° SE
Cosmos 1536 Rocket 4.3 21:59:27 10° N 22:03:40 38° ENE 22:06:19 20° SE
deb Chang Zheng 4 4.4 22:07:24 10° N 22:11:43 53° WNW 22:16:01 10° SSW
Cosmos 1812 3.9 22:09:36 10° NNE 22:13:01 28° ENE 22:14:33 22° ESE
USA 229 DEB 3.8 22:08:34 10° NW 22:15:42 82° NE 22:20:58 20° SE
USA 229 3.8 22:08:40 10° NW 22:15:48 82° NE 22:21:04 20° SE
Cosmos 2341 Rocket 4.4 22:10:07 10° SSW 22:16:23 68° W 22:22:38 10° N
Cosmos 1741 Rocket 4.1 22:11:53 10° NNW 22:17:07 73° WSW 22:21:06 17° S
Cosmos 2082 Rocket 2.2 22:13:01 10° NNW 22:18:46 86° ENE 22:22:40 21° SSE
USA 245 3.3 22:19:50 22° S 22:22:02 76° WSW 22:26:23 10° NNW
Meteor 1-14 Rocket 4.1 22:19:11 10° S 22:24:50 78° E 22:30:26 10° NNE
BREEZE-M DEB 4.4 22:22:09 10° WSW 22:26:08 71° NNW 22:28:40 11° ENE
SL-8 Rocket 4.0 22:19:56 10° S 22:26:13 88° E 22:32:29 10° N
Timation 2 Rocket 4.5 22:23:52 10° NW 22:29:39 51° WSW 22:34:12 16° S
H-2A R/B 4.1 22:28:20 10° SSW 22:31:46 23° W 22:35:12 10° NW
IGS 5A 4.2 22:30:57 27° ESE 22:32:37 40° ENE 22:36:31 10° N
Cosmos 1110 Rocket 4.4 22:31:04 23° SSE 22:33:49 43° ESE 22:38:44 10° NE
Cosmos 2151 Rocket 3.5 22:31:06 19° S 22:34:17 78° E 22:38:51 10° NNE
Cosmos 2297 3.7 22:31:57 10° SSW 22:37:40 88° WNW 22:43:27 10° NNE
CZ-4 R/B 3.7 22:34:05 10° NNE 22:38:46 74° ESE 22:41:53 21° S
NOAA 11 4.5 22:39:28 19° S 22:43:25 65° WSW 22:48:55 10° NNW
APEX 4.3 22:41:38 10° SW 22:45:43 59° WNW 22:51:08 10° NNE
Cosmos 1300 Rocket 3.9 22:47:41 35° SE 22:48:59 47° E 22:53:16 10° NNE
SL-8 R/B 4.1 22:48:05 10° W 22:52:53 65° N 22:57:06 13° E
Okean 1 Rocket 3.5 22:52:59 37° SE 22:54:07 46° E 22:58:24 10° NNE
BREEZE-M TANK 3.2 22:42:30 10° W 22:54:11 83° S 22:56:11 28° ESE
ATLAS 2AS CENTAUR R/B 4.4 22:47:02 10° NW 22:54:18 33° NNE 23:01:21 10° E
CZ-4C R/B 3.4 22:53:00 37° S 22:54:30 78° WSW 22:58:41 10° NNW
Cosmos 1486 Rocket 4.2 22:52:52 10° NNW 22:58:12 64° ENE 23:00:23 35° SE
Gbstr 26 Del rocket 3.0 22:54:16 10° WNW 22:59:25 87° NNE 23:01:03 39° ESE
Landsat 7 4.0 22:58:19 30° S 23:00:37 68° WSW 23:05:24 10° NNW
NOSS 3-1 (C) 4.1 22:56:10 10° NW 23:03:34 71° NE 23:08:26 27° SE
Okean 1-7 Rocket 3.6 23:00:36 10° N 23:05:06 68° E 23:06:19 45° SE
CZ-4B R/B 4.2 23:00:27 10° N 23:05:14 50° WNW 23:09:53 10° SW
Cosmos 1400 Rocket 4.0 23:06:02 29° E 23:06:02 29° E 23:09:31 10° NNE
H-2A R/B 2.2 23:03:30 31° S 23:06:11 75° WSW 23:11:29 10° NNW
ISS -2.0 23:03:13 10° W 23:06:19 41° NNW 23:09:27 10° NE
Cosmos 2366 rocket 4.4 23:01:37 12° SSW 23:07:24 64° WNW 23:13:43 10° N
Cosmos 1536 4.1 23:08:23 25° E 23:08:23 25° E 23:11:24 10° NNE
Cosmos 1633 4.3 23:08:46 21° ENE 23:08:46 21° ENE 23:11:05 10° NE
Cosmos 2369 Rocket 3.3 23:08:35 25° ESE 23:08:42 25° ESE 23:13:12 10° NE
ARGOS 4.3 23:09:33 17° SSW 23:13:09 35° W 23:18:03 10° NNW
USA 234 3.4 23:07:09 10° ENE 23:13:23 46° SE 23:17:23 22° SSW
Terra 2.0 23:14:33 37° S 23:16:20 67° WSW 23:21:06 10° NNW
Timation 1 Rocket 4.3 23:12:59 13° SSW 23:18:25 86° WNW 23:24:28 10° NNE
Meteor 1-19 Rocket 4.4 23:13:22 10° N 23:19:12 63° ENE 23:21:15 39° SE
Cosmos 1302 Rocket 4.0 23:27:09 45° S 23:28:40 67° ESE 23:33:56 10° NNE
Okean 1 4.1 23:25:10 10° NNW 23:29:04 45° W 23:30:04 37° SW
CARTOSAT-1 4.4 23:30:00 33° SW 23:31:15 42° W 23:35:23 10° NNW
Spot 4 4.1 23:29:47 42° SSW 23:31:16 64° WSW 23:36:07 10° NNW
Spot 2 3.9 23:31:05 10° NNE 23:35:27 88° ESE 23:36:04 64° S
SAR-Lupe-2 4.0 23:37:24 52° WSW 23:37:28 52° W 23:40:59 10° NNW
Cosmos 1833 Rocket 4.1 23:33:48 10° NW 23:38:34 29° WSW 23:40:52 22° SW
Meteor 2-15 4.5 23:33:12 10° N 23:39:19 66° E 23:41:13 44° SE
Cosmos 1943 Rocket 3.8 23:41:12 19° E 23:41:12 19° E 23:44:24 10° ENE
Lacrosse 5 1.8 23:43:14 57° S 23:43:56 64° SE 23:49:00 10° NE
Cosmos 2239 Rocket 4.4 23:45:30 40° S 23:48:01 89° E 23:54:22 10° N
Cosmos 1602 3.7 23:49:00 74° W 23:49:05 74° W 23:53:00 10° N
Iridium 4 Rocket 3.8 23:47:03 10° N 23:52:59 87° W 23:54:46 48° S
